CEB1156 OMDB-RPLL

Flight info

Callsign CEB1156
Flight time N/A
Altitude 37000
Route IVURO M428 MUNGA A777 VAXIM L301 KARKU M638 EXOLU L505 BUSBO L301 GUSTU/N0474F390 L301 BKK/K0878F390 DCT PCA L628 MESOX/N0474F390 L628 ARESI/N0483F370 L628 GUKUM DCT LUBAN LUBAN1A
Aircraft A339/H-SADE1E2E3GHIJ3J5M1P2RWXY/LB2D1

Departure

Time 2026-04-24 16:48
Airport Dubai International Airport (OMDB)

Arrival

Time N/A
Airport Ninoy Aquino International Airport (RPLL)
Time Latitude Longitude Altitude Speed Heading
2026-04-24 16:11 25.25555 55.35074 36 ft 0 kts 203°
2026-04-24 16:27 25.25559 55.35076 36 ft 2 kts 203°
2026-04-24 16:27 25.25573 55.35083 36 ft 2 kts 203°
2026-04-24 16:27 25.25587 55.35089 36 ft 2 kts 203°
2026-04-24 16:28 25.25595 55.35093 36 ft 2 kts 203°
2026-04-24 16:28 25.25610 55.35098 36 ft 2 kts 187°
2026-04-24 16:28 25.25633 55.35097 37 ft 1 kts 166°
2026-04-24 16:29 25.25649 55.35092 38 ft 2 kts 152°
2026-04-24 16:29 25.25660 55.35083 38 ft 2 kts 139°
2026-04-24 16:29 25.25674 55.35066 38 ft 1 kts 120°
2026-04-24 16:30 25.25676 55.35063 38 ft 0 kts 120°
2026-04-24 16:34 25.25671 55.35071 38 ft 3 kts 120°
2026-04-24 16:34 25.25660 55.35097 38 ft 5 kts 113°
2026-04-24 16:35 25.25655 55.35125 38 ft 3 kts 74°
2026-04-24 16:35 25.25674 55.35152 38 ft 6 kts 46°
2026-04-24 16:35 25.25706 55.35176 38 ft 6 kts 31°
2026-04-24 16:35 25.25747 55.35204 39 ft 6 kts 32°
2026-04-24 16:36 25.25790 55.35233 39 ft 7 kts 32°
2026-04-24 16:36 25.25844 55.35271 38 ft 10 kts 32°
2026-04-24 16:36 25.25906 55.35313 38 ft 10 kts 32°
2026-04-24 16:36 25.25959 55.35372 39 ft 10 kts 53°
2026-04-24 16:37 25.25993 55.35441 40 ft 9 kts 76°
2026-04-24 16:37 25.25989 55.35515 41 ft 9 kts 108°
2026-04-24 16:37 25.25970 55.35564 41 ft 10 kts 117°
2026-04-24 16:37 25.25916 55.35658 41 ft 11 kts 121°
2026-04-24 16:38 25.25875 55.35733 42 ft 11 kts 121°
2026-04-24 16:38 25.25836 55.35803 44 ft 10 kts 121°
2026-04-24 16:38 25.25798 55.35873 44 ft 10 kts 121°
2026-04-24 16:38 25.25758 55.35947 44 ft 11 kts 121°
2026-04-24 16:39 25.25716 55.36024 45 ft 11 kts 121°
2026-04-24 16:39 25.25675 55.36100 46 ft 11 kts 121°
2026-04-24 16:39 25.25635 55.36171 47 ft 10 kts 121°
2026-04-24 16:39 25.25595 55.36243 47 ft 11 kts 121°
2026-04-24 16:40 25.25552 55.36321 47 ft 12 kts 121°
2026-04-24 16:40 25.25507 55.36403 47 ft 12 kts 121°
2026-04-24 16:40 25.25461 55.36486 48 ft 12 kts 121°
2026-04-24 16:40 25.25415 55.36569 49 ft 12 kts 121°
2026-04-24 16:41 25.25370 55.36649 50 ft 11 kts 122°
2026-04-24 16:41 25.25325 55.36727 51 ft 12 kts 122°
2026-04-24 16:41 25.25280 55.36806 51 ft 11 kts 121°
2026-04-24 16:41 25.25237 55.36886 52 ft 13 kts 121°
2026-04-24 16:42 25.25187 55.36976 53 ft 13 kts 121°
2026-04-24 16:42 25.25138 55.37065 54 ft 13 kts 121°
2026-04-24 16:42 25.25087 55.37157 54 ft 14 kts 121°
2026-04-24 16:42 25.25035 55.37251 54 ft 14 kts 121°
2026-04-24 16:43 25.24983 55.37346 54 ft 14 kts 121°
2026-04-24 16:43 25.24931 55.37438 56 ft 13 kts 121°
2026-04-24 16:43 25.24885 55.37522 57 ft 12 kts 121°
2026-04-24 16:43 25.24837 55.37609 57 ft 13 kts 121°
2026-04-24 16:44 25.24788 55.37698 57 ft 13 kts 121°
2026-04-24 16:44 25.24738 55.37791 57 ft 14 kts 121°
2026-04-24 16:44 25.24687 55.37884 58 ft 13 kts 120°
2026-04-24 16:44 25.24640 55.37972 60 ft 12 kts 120°
2026-04-24 16:45 25.24594 55.38054 60 ft 12 kts 123°
2026-04-24 16:45 25.24543 55.38138 60 ft 13 kts 123°
2026-04-24 16:45 25.24514 55.38208 61 ft 8 kts 86°
2026-04-24 16:45 25.24536 55.38262 62 ft 7 kts 44°
2026-04-24 16:46 25.24582 55.38297 62 ft 8 kts 28°
2026-04-24 16:46 25.24646 55.38306 61 ft 10 kts 328°
2026-04-24 16:46 25.24689 55.38239 60 ft 10 kts 303°
2026-04-24 16:46 25.24731 55.38167 60 ft 11 kts 300°
2026-04-24 16:47 25.24785 55.38067 60 ft 30 kts 301°
2026-04-24 16:47 25.25009 55.37664 57 ft 90 kts 301°
2026-04-24 16:47 25.25436 55.36894 52 ft 142 kts 301°
2026-04-24 16:47 25.26036 55.35816 69 ft 182 kts 302°
2026-04-24 16:48 25.26694 55.34628 587 ft 181 kts 302°
2026-04-24 16:48 25.27365 55.33444 1159 ft 181 kts 304°
2026-04-24 16:48 25.28058 55.32293 1691 ft 184 kts 306°
2026-04-24 16:48 25.28765 55.31086 2061 ft 190 kts 302°
2026-04-24 16:49 25.29533 55.29844 2386 ft 198 kts 319°
2026-04-24 16:49 25.30781 55.29239 2642 ft 208 kts
2026-04-24 16:49 25.32274 55.29451 2892 ft 222 kts
2026-04-24 16:49 25.33849 55.29649 3229 ft 232 kts
2026-04-24 16:50 25.34948 55.29690 3481 ft 237 kts
2026-04-24 16:50 25.37202 55.29798 4004 ft 248 kts 359°
2026-04-24 16:50 25.38831 55.29821 4352 ft 257 kts
2026-04-24 16:50 25.40525 55.30540 4800 ft 267 kts 39°
2026-04-24 16:51 25.41818 55.32085 5169 ft 279 kts 51°
2026-04-24 16:51 25.42988 55.33816 5630 ft 284 kts 52°
2026-04-24 16:51 25.44179 55.35577 6148 ft 287 kts 51°
2026-04-24 16:51 25.45398 55.37317 6636 ft 290 kts 50°
2026-04-24 16:52 25.46675 55.39091 7142 ft 293 kts 50°
2026-04-24 16:52 25.47957 55.40851 7670 ft 295 kts 50°
2026-04-24 16:52 25.49241 55.42638 8181 ft 297 kts 51°
2026-04-24 16:52 25.50495 55.44440 8678 ft 300 kts 51°
2026-04-24 16:53 25.51765 55.46272 9188 ft 302 kts 51°
2026-04-24 16:53 25.52828 55.48311 9628 ft 308 kts 74°
2026-04-24 16:53 25.52967 55.50670 10118 ft 310 kts 102°
2026-04-24 16:53 25.52166 55.52883 10482 ft 315 kts 124°
2026-04-24 16:54 25.50926 55.54950 10717 ft 328 kts 125°
2026-04-24 16:54 25.49628 55.57112 10951 ft 341 kts 124°
2026-04-24 16:54 25.48307 55.59363 11182 ft 354 kts 124°
2026-04-24 16:54 25.46948 55.61719 11401 ft 367 kts 123°
2026-04-24 16:55 25.45563 55.64144 11613 ft 380 kts 123°
2026-04-24 16:55 25.44113 55.66703 11837 ft 393 kts 122°
2026-04-24 16:55 25.42864 55.69450 12203 ft 401 kts 114°
2026-04-24 16:55 25.41941 55.72381 12741 ft 404 kts 106°
2026-04-24 16:56 25.41268 55.75408 13305 ft 406 kts 104°
2026-04-24 16:56 25.40626 55.78528 13829 ft 409 kts 104°
2026-04-24 16:56 25.39979 55.81659 14335 ft 412 kts 104°
2026-04-24 16:56 25.39333 55.84744 14817 ft 416 kts 104°
2026-04-24 16:57 25.38671 55.87868 15278 ft 419 kts 104°
2026-04-24 16:57 25.37994 55.91044 15762 ft 422 kts 104°
2026-04-24 16:57 25.37309 55.94239 16244 ft 425 kts 104°
2026-04-24 16:57 25.36635 55.97382 16691 ft 428 kts 104°
2026-04-24 16:58 25.35936 56.00639 17166 ft 431 kts 104°
2026-04-24 16:58 25.35239 56.03895 17611 ft 435 kts 104°
2026-04-24 16:58 25.34533 56.07180 18091 ft 437 kts 104°
2026-04-24 16:58 25.33822 56.10493 18532 ft 441 kts 104°
2026-04-24 16:59 25.33086 56.13817 18979 ft 444 kts 105°
2026-04-24 16:59 25.32184 56.17141 19417 ft 447 kts 109°
2026-04-24 16:59 25.30074 56.23641 20254 ft 453 kts 111°
2026-04-24 17:00 25.28994 56.26905 20655 ft 456 kts 111°
2026-04-24 17:00 25.26797 56.33569 21435 ft 463 kts 111°
2026-04-24 17:00 25.25687 56.36940 21812 ft 466 kts 111°
2026-04-24 17:01 25.23427 56.43780 22518 ft 473 kts 111°
2026-04-24 17:01 25.22290 56.47218 22904 ft 475 kts 111°
2026-04-24 17:02 25.20394 56.52951 23487 ft 480 kts 111°
2026-04-24 17:02 25.18853 56.57580 23970 ft 483 kts 112°
2026-04-24 17:02 25.17588 56.61019 24317 ft 485 kts 114°
2026-04-24 17:02 25.16275 56.64501 24667 ft 487 kts 114°
2026-04-24 17:03 25.13654 56.71423 25334 ft 491 kts 114°
2026-04-24 17:03 25.12337 56.74902 25629 ft 494 kts 114°
2026-04-24 17:03 25.11005 56.78423 25924 ft 497 kts 114°
2026-04-24 17:04 25.09675 56.81936 26223 ft 499 kts 114°
2026-04-24 17:04 25.06975 56.89069 26820 ft 503 kts 114°
2026-04-24 17:04 25.05629 56.92620 27110 ft 506 kts 114°
2026-04-24 17:05 25.04259 56.96232 27398 ft 508 kts 114°
2026-04-24 17:05 25.02901 56.99810 27681 ft 510 kts 114°
2026-04-24 17:05 25.00160 57.07017 28380 ft 510 kts 114°
2026-04-24 17:06 24.98776 57.10653 28832 ft 508 kts 114°
2026-04-24 17:06 24.96065 57.17767 29578 ft 506 kts 113°
2026-04-24 17:06 24.94683 57.21394 29912 ft 507 kts 113°
2026-04-24 17:07 24.93782 57.23753 30113 ft 507 kts 113°
2026-04-24 17:07 24.91959 57.28526 30553 ft 507 kts 113°
2026-04-24 17:07 24.89217 57.35696 31210 ft 507 kts 113°
2026-04-24 17:08 24.86469 57.42868 31860 ft 506 kts 113°
2026-04-24 17:08 24.85081 57.46487 32133 ft 507 kts 113°
2026-04-24 17:08 24.83708 57.50060 32428 ft 507 kts 113°
2026-04-24 17:09 24.80956 57.57219 33011 ft 506 kts 113°
2026-04-24 17:09 24.78217 57.64333 33597 ft 505 kts 113°
2026-04-24 17:10 24.76823 57.67948 33855 ft 505 kts 113°
2026-04-24 17:10 24.72765 57.78666 34577 ft 505 kts 110°
2026-04-24 17:11 24.69330 57.89577 35282 ft 504 kts 108°
2026-04-24 17:12 24.63598 58.07933 36098 ft 508 kts 108°